Home   Weather   Binghamton   Past weeks

Flag for USA Past Weather in Binghamton, New York, USA — Yesterday and Last 2 Weeks

Now
49 °F

Fog.


Feels Like: 45 °F
Forecast: 53 / 64 °F
Wind: 8 mph from East

Location: Binghamton Regional Airport

Current Time: Sep 30, 2016 at 11:17:50 PM

Latest Report: Sep 30, 2016 at 10:53 PM


Visibility: 2 mi

Pressure: 30.29 "Hg

Humidity: 100%

Dew Point: 49 °F

Location of BinghamtonLocation

Past Weather in Binghamton — Graph

°F

Binghamton Temperature Yesterday

Maximum temperature yesterday: 57 °F (at 3:53 PM)
Minimum temperature yesterday: 51 °F (at 5:53 AM)
Average temperature yesterday: 54 °F

High & Low Weather Summary for the Past Weeks

 TemperatureHumidityPressure
High79 °F (Sep 20, 3:53 PM)100% (Sep 18, 7:53 AM)30.37 "Hg (Sep 18, 7:53 AM)
Low40 °F (Sep 26, 4:53 AM)30% (Sep 22, 2:53 PM)29.86 "Hg (Sep 27, 3:53 PM)
Average59 °F75%30.14 "Hg
* Reported Sep 15 9:53 PM — Sep 30 9:53 PM, Binghamton, Weather by CustomWeather, © 2016

Note: Actual official high and low records may vary slightly from our data, if they occured in-between our weather recording intervals... More about our weather records

Advertising

Binghamton Weather History for the Previous 24 Hours

Scroll right to see more
 ConditionsComfort  
Time TempWeatherWind HumidityBarometerVisibility
9:53 PM
Fri, Sep 30
49 °FFog.7 mph100%30.30 "Hg1 mi
9:00 PM49 °FFog.8 mph100%30.29 "Hg2 mi
7:53 PM49 °FFog.9 mph100%30.30 "Hg4 mi
6:53 PM49 °FFog.9 mph97%30.30 "Hg6 mi
5:53 PM49 °FMostly cloudy.13 mph97%30.29 "Hg2 mi
4:53 PM49 °FLight rain. Fog.9 mph100%30.30 "Hg2 mi
3:53 PM49 °FLight rain. Fog.10 mph100%30.30 "Hg1 mi
2:53 PM52 °FMore clouds than sun.13 mph89%30.30 "Hg10 mi
1:53 PM50 °FOvercast.9 mph93%30.32 "Hg10 mi
12:53 PM50 °FMostly cloudy.10 mph93%30.35 "Hg10 mi
11:53 AM49 °FLight rain. Overcast.15 mph90%30.35 "Hg10 mi
10:53 AM47 °FLight rain. Overcast.6 mph97%30.37 "Hg10 mi
9:53 AM47 °FLight rain. Partly sunny.8 mph90%30.36 "Hg10 mi
8:53 AM47 °FLight rain. Mostly cloudy.8 mph90%30.34 "Hg10 mi
7:53 AM47 °FPartly sunny.8 mph90%30.35 "Hg10 mi
6:53 AM47 °FLight rain. Passing clouds.7 mph90%30.35 "Hg10 mi
5:53 AM48 °FMostly cloudy.7 mph89%30.34 "Hg10 mi
4:53 AM49 °FLight rain. Overcast.6 mph86%30.33 "Hg10 mi
3:53 AM50 °FOvercast.10 mph80%30.33 "Hg10 mi
2:53 AM51 °FMostly cloudy.10 mph83%30.34 "Hg10 mi
1:53 AM52 °FLight rain. Overcast.7 mph80%30.35 "Hg10 mi
12:53 AM53 °FLight rain. Passing clouds.7 mph74%30.35 "Hg10 mi
11:53 PM
Thu, Sep 29
53 °FPassing clouds.9 mph74%30.35 "Hg10 mi
Weather by CustomWeather, © 2016

See weather overviewHow to use our weather pages